Regional Weather Roundup
Issued by NWS

Current Version | Previous Version | Text Only | Print | Product List | Glossary On
Versions: 1 2 3 4 5 6 7 8 9 10 11 12 13 14 15 16 17 18 19 20 21 22 23 24 25 26 27 28 29 30 31 32 33 34 35 36 37 38 39 40 41 42 43 44 45 46 47 48 49 50
000
ASUS45 KABQ 090110
RWRNM
NEW MEXICO REGIONAL WEATHER ROUNDUP
NATIONAL WEATHER SERVICE ALBUQUERQUE NM
600 PM MST MON FEB 08 2016

NOTE: "FAIR" MEANS FEW OR NO CLOUDS BELOW 12,000 FEET AGL WITH NO
       SIGNIFICANT WEATHER OR OBSTRUCTIONS TO VISION.

      THIS PRODUCT IS RELEASED AS TWO VERSIONS.  ONE VERSION NEAR
      THE TOP OF THE HOUR CONTAINING PRELIMINARY DATA FROM ALBUQUERQUE
      AND OTHER STATIONS.  A FINAL VERSION WITH ADDITIONAL DATA IS
      ISSUED ABOUT 10 MINUTES AFTER THE HOUR.

NMZ501-503-504-510>518-090200-
NORTHWEST PLATEAU/NORTHCENTRAL MOUNTAINS

CITY           SKY/WX    TMP DP  RH WIND       PRES   REMARKS
FARMINGTON     CLOUDY    47  24  40 CALM      30.37F
LOS ALAMOS     CLEAR     46  16  30 E5        30.38S
SANTA FE       CLEAR     43  16  33 NW7       30.34R
TAOS           CLOUDY    36  21  55 NW13      30.38R WCI  27
ANGEL FIRE     FAIR      28  21  74 W9        30.40R WCI  19

$$
NMZ402-403-502-505>509-090200-
WESTCENTRAL MOUNTAINS/SOUTHWEST MOUNTAINS

CITY           SKY/WX    TMP DP  RH WIND       PRES   REMARKS
GALLUP         PTCLDY    43  21  41 NE7       30.42R
GRANTS         PTCLDY    43  16  33 N10       30.42F
SILVER CITY      N/A     52  16  24 S7        30.34S

$$
NMZ407-409-411-412-090200-
SOUTHERN DESERTS

CITY           SKY/WX    TMP DP  RH WIND       PRES   REMARKS
LORDSBURG      FAIR      55  19  24 E12       30.28S
DEMING         PTCLDY    57  16  20 S5        30.30R
LAS CRUCES     CLEAR     52  17  25 S6        30.32R
HOLLOMAN AFB   CLEAR     52  17  25 W5        30.29S
ALAMOGORDO     CLEAR     52  18  25 S7        30.31R
T OR C         PTCLDY    58  14  17 CALM      30.30S

$$
NMZ519>523-090200-
CENTRAL VALLEYS/CENTRAL HIGHLANDS

CITY           SKY/WX    TMP DP  RH WIND       PRES   REMARKS
ALBUQUERQUE    PTCLDY    52  20  28 N14       30.34R
DOUBLE EAGLE   CLEAR     46  21  36 NW14      30.35S
MORIARTY ARPT  FAIR      42  15  32 W6        30.35R
CLINES CORNERS CLEAR     40  19  43 E9        30.35R WCI  34
BELEN          FAIR      48  14  25 NE8       30.33S
SOCORRO        FAIR      54  15  21 W6        30.32S

$$
NMZ524>526-539-540-090200-
SOUTHCENTRAL MOUNTAINS

CITY           SKY/WX    TMP DP  RH WIND       PRES   REMARKS
RUIDOSO          N/A     39  12  33 SE5       30.38R

$$
NMZ527>531-090200-
NORTHEAST HIGHLANDS/NORTHEAST PLAINS

CITY           SKY/WX    TMP DP  RH WIND       PRES   REMARKS
LAS VEGAS      CLEAR     34  19  54 S13       30.35S WCI  25
RATON          CLEAR     41  18  39 SW6       30.34R
CLAYTON        CLEAR     36  19  50 N7        30.36R WCI  30

$$
NMZ532>537-090200-
EASTCENTRAL PLAINS

CITY           SKY/WX    TMP DP  RH WIND       PRES   REMARKS
TUCUMCARI      CLEAR     44  14  29 CALM      30.36R
CANNON AFB     CLEAR     45  15  29 NW3       30.36R
CLOVIS AIRPORT CLEAR     45  16  31 W5        30.37R

$$
NMZ028-029-538-090200-
SOUTHEAST PLAINS

CITY           SKY/WX    TMP DP  RH WIND       PRES   REMARKS
ROSWELL        CLEAR     41  16  36 S8        30.35S
ARTESIA        CLEAR     45  14  29 S8        30.36S
CARLSBAD       CLEAR     44  14  29 SE8       30.35F
HOBBS          CLEAR     45  10  24 CALM      30.36S


$$



USA.gov is the U.S. government's official web portal to all federal, state and local government web resources and services.